Weather History for KDWX - March, 2014

Change the Weather History Date:

Friday, March 28, 2014

  Actual Average (KCAG) Record (KCAG)
Temperature  
Mean Temperature 30 °F 38 °F  
Max Temperature 46 °F 51 °F 74 °F (2015)
Min Temperature 15 °F 24 °F 12 °F (2008)
Degree Days  
Heating Degree Days 35 28  
Month to date heating degree days 932  
Since 1 July heating degree days 7258  
Cooling Degree Days 0 0  
Month to date cooling degree days 0  
Year to date cooling degree days 0  
Moisture  
Dew Point 20 °F    
Average Humidity 64    
Maximum Humidity 88    
Minimum Humidity 27    
Precipitation  
Precipitation 0.00 in 0.05 in 0.22 in (2011)
Month to date precipitation 1.13  
Year to date precipitation 2.83  
Sea Level Pressure  
Sea Level Pressure 30.11 in    
Wind  
Wind Speed 6 mph (West)    
Max Wind Speed 22 mph    
Max Gust Speed 30 mph    
Visibility 10 miles    
Events      
T = Trace of Precipitation, MM = Missing Value Source: NWS Daily Summary

Daily Weather History Graph

Daily Weather History Graph

Search for Another Location

Airport or City:

Trip Planner

Search our weather history database for the weather conditions in past years. The results will help you decide how hot, cold, wet, or windy it might be!

Date:

Astronomy

Mar. 28, 2014 Rise Set
Actual Time 6:59 AM MDT 7:30 PM MDT
Civil Twilight 6:32 AM MDT 7:58 PM MDT
Nautical Twilight 5:59 AM MDT 8:31 PM MDT
Astronomical Twilight 5:26 AM MDT 9:04 PM MDT
Moon 5:33 AM MDT (3/28) 5:29 PM MDT (3/28)
Length of Visible Light 13h 26m
Length of Day
12h 30m
Waning Crescent, 6% of the Moon is Illuminated
Mar 28
Waning Crescent
Mar 30
New
Apr 7
First Quarter
Apr 15
Full
Apr 22
Last Quarter

Hourly Weather History & Observations

Time (MDT) Temp. Windchill Dew Point Humidity Pressure Visibility Wind Dir Wind Speed Gust Speed Precip Events Conditions
12:15 AM 26.8 °F 22.8 °F 22.1 °F 83% 29.96 in 10.0 mi SW 3.5 mph - N/A   Overcast
12:35 AM 29.3 °F 22.3 °F 23.7 °F 80% 29.96 in 10.0 mi SW 6.9 mph - N/A   Overcast
12:55 AM 28.4 °F 23.3 °F 23.0 °F 80% 29.96 in 10.0 mi SW 4.6 mph - N/A   Mostly Cloudy
1:15 AM 28.2 °F 24.4 °F 22.1 °F 78% 29.97 in 10.0 mi SSW 3.5 mph - N/A   Mostly Cloudy
1:35 AM 27.0 °F 23.0 °F 21.0 °F 78% 29.98 in 10.0 mi SW 3.5 mph - N/A   Scattered Clouds
1:55 AM 24.1 °F - 19.4 °F 82% 29.98 in 10.0 mi Calm Calm - N/A   Scattered Clouds
2:15 AM 26.6 °F 21.2 °F 19.2 °F 74% 29.98 in 10.0 mi WSW 4.6 mph - N/A   Clear
2:35 AM 24.1 °F - 18.1 °F 78% 29.98 in 10.0 mi Calm Calm - N/A   Clear
2:55 AM 16.3 °F 9.2 °F 12.6 °F 85% 29.97 in 10.0 mi NE 4.6 mph - N/A   Clear
3:15 AM 21.4 °F - 16.7 °F 82% 29.97 in 10.0 mi Calm Calm - N/A   Clear
3:35 AM 15.8 °F - 12.7 °F 88% 29.97 in 10.0 mi Calm Calm - N/A   Clear
3:55 AM 16.7 °F 11.2 °F 13.6 °F 88% 29.97 in 10.0 mi NNW 3.5 mph - N/A   Clear
4:15 AM 16.7 °F - 13.1 °F 86% 29.98 in 10.0 mi Calm Calm - N/A   Clear
4:35 AM 18.0 °F - 13.1 °F 81% 29.98 in 10.0 mi Calm Calm - N/A   Scattered Clouds
4:55 AM 17.1 °F - 13.5 °F 86% 29.99 in 10.0 mi Calm Calm - N/A   Mostly Cloudy
5:15 AM 19.0 °F - 16.0 °F 88% 30.00 in 10.0 mi Calm Calm - N/A   Mostly Cloudy
5:35 AM 22.5 °F - 18.0 °F 83% 30.01 in 10.0 mi Calm Calm - N/A   Overcast
5:55 AM 22.6 °F - 18.0 °F 82% 30.01 in 10.0 mi Calm Calm - N/A   Overcast
6:15 AM 22.1 °F - 17.6 °F 83% 30.01 in 10.0 mi Calm Calm - N/A   Overcast
6:35 AM 22.5 °F - 18.5 °F 85% 30.02 in 10.0 mi Calm Calm - N/A   Overcast
6:55 AM 25.0 °F 18.1 °F 20.8 °F 84% 30.03 in 10.0 mi WSW 5.8 mph - N/A   Overcast
7:15 AM 27.5 °F 20.2 °F 21.4 °F 78% 30.04 in 10.0 mi WSW 6.9 mph - N/A   Overcast
7:35 AM 28.4 °F 24.6 °F 21.4 °F 75% 30.05 in 10.0 mi West 3.5 mph - N/A   Overcast
7:55 AM 28.4 °F 24.6 °F 22.3 °F 78% 30.06 in 10.0 mi West 3.5 mph - N/A   Overcast
8:15 AM 29.5 °F 25.9 °F 22.6 °F 76% 30.07 in 10.0 mi WNW 3.5 mph - N/A   Overcast
8:35 AM 29.5 °F 24.5 °F 22.8 °F 76% 30.07 in 10.0 mi WSW 4.6 mph - N/A   Overcast
8:55 AM 30.2 °F 26.7 °F 23.5 °F 76% 30.09 in 10.0 mi WSW 3.5 mph - N/A   Overcast
9:15 AM 31.1 °F - 23.0 °F 72% 30.10 in 10.0 mi Calm Calm - N/A   Overcast
9:35 AM 32.0 °F 28.7 °F 23.0 °F 69% 30.10 in 10.0 mi West 3.5 mph - N/A   Overcast
9:55 AM 32.9 °F 26.7 °F 23.5 °F 68% 30.11 in 10.0 mi SW 6.9 mph - N/A   Overcast
10:15 AM 33.4 °F 27.3 °F 23.4 °F 67% 30.12 in 10.0 mi SSW 6.9 mph - N/A   Overcast
10:35 AM 34.2 °F 29.0 °F 23.5 °F 65% 30.13 in 10.0 mi SW 5.8 mph - N/A   Overcast
10:55 AM 35.2 °F 29.5 °F 23.7 °F 63% 30.14 in 10.0 mi SW 6.9 mph - N/A   Overcast
11:15 AM 35.4 °F 28.4 °F 23.7 °F 62% 30.14 in 10.0 mi West 9.2 mph - N/A   Overcast
11:35 AM 35.6 °F 29.2 °F 24.8 °F 65% 30.15 in 10.0 mi West 8.1 mph - N/A   Overcast
11:55 AM 37.0 °F 29.3 °F 26.1 °F 65% 30.15 in 10.0 mi West 11.5 mph 17.3 mph N/A   Overcast
12:15 PM 36.0 °F 26.3 °F 25.3 °F 65% 30.15 in 10.0 mi WSW 16.1 mph 21.9 mph N/A   Overcast
12:35 PM 37.9 °F 29.6 °F 24.6 °F 59% 30.15 in 10.0 mi West 13.8 mph 17.3 mph N/A   Overcast
12:55 PM 38.3 °F 29.7 °F 25.3 °F 60% 30.15 in 10.0 mi West 15.0 mph 24.2 mph N/A   Overcast
1:15 PM 42.3 °F 33.8 °F 24.8 °F 50% 30.14 in 10.0 mi WSW 18.4 mph 27.6 mph N/A   Mostly Cloudy
1:35 PM 40.6 °F 33.0 °F 24.3 °F 52% 30.14 in 10.0 mi WSW 13.8 mph - N/A   Mostly Cloudy
1:55 PM 40.1 °F 32.0 °F 21.4 °F 47% 30.14 in 10.0 mi West 15.0 mph 26.5 mph N/A   Overcast
2:15 PM 41.5 °F 34.6 °F 18.9 °F 40% 30.14 in 10.0 mi WSW 12.7 mph 19.6 mph N/A   Mostly Cloudy
2:35 PM 40.6 °F 32.3 °F 18.3 °F 41% 30.13 in 10.0 mi WNW 16.1 mph 24.2 mph N/A   Overcast
2:55 PM 39.7 °F 32.7 °F 19.0 °F 43% 30.14 in 10.0 mi West 11.5 mph 25.3 mph N/A   Overcast
3:15 PM 40.3 °F 37.1 °F 20.1 °F 45% 30.13 in 7.0 mi West 4.6 mph 26.5 mph N/A   Unknown
3:35 PM 43.9 °F 35.4 °F 20.8 °F 40% 30.14 in 10.0 mi West 20.7 mph 27.6 mph N/A   Mostly Cloudy
3:55 PM 44.8 °F 38.0 °F 16.2 °F 32% 30.14 in 10.0 mi West 15.0 mph 24.2 mph N/A   Mostly Cloudy
4:15 PM 45.7 °F 38.3 °F 15.6 °F 30% 30.14 in 10.0 mi West 18.4 mph 28.8 mph N/A   Mostly Cloudy
4:35 PM 43.2 °F 35.6 °F 13.8 °F 31% 30.14 in 10.0 mi West 16.1 mph 25.3 mph N/A   Mostly Cloudy
4:55 PM 45.5 °F 37.3 °F 14.2 °F 28% 30.15 in 10.0 mi WNW 21.9 mph 29.9 mph N/A   Mostly Cloudy
5:15 PM 45.1 °F 37.3 °F 14.2 °F 29% 30.15 in 10.0 mi West 19.6 mph 28.8 mph N/A   Scattered Clouds
5:35 PM 45.5 °F 38.1 °F 13.1 °F 27% 30.15 in 10.0 mi West 18.4 mph 26.5 mph N/A   Scattered Clouds
5:55 PM 45.5 °F 37.8 °F 12.7 °F 27% 30.15 in 10.0 mi WNW 19.6 mph 28.8 mph N/A   Scattered Clouds
6:15 PM 44.1 °F 37.1 °F 14.5 °F 30% 30.16 in 10.0 mi West 15.0 mph 27.6 mph N/A   Scattered Clouds
6:35 PM 43.2 °F 35.6 °F 14.2 °F 31% 30.16 in 10.0 mi West 16.1 mph 20.7 mph N/A   Mostly Cloudy
6:55 PM 41.9 °F 35.9 °F 16.2 °F 35% 30.18 in 10.0 mi West 10.4 mph - N/A   Overcast
7:15 PM 42.3 °F 36.8 °F 16.2 °F 35% 30.18 in 10.0 mi West 9.2 mph - N/A   Overcast
7:35 PM 38.7 °F 32.9 °F 19.9 °F 47% 30.19 in 10.0 mi West 8.1 mph - N/A   Overcast
7:55 PM 38.5 °F - 19.0 °F 46% 30.19 in 10.0 mi Calm Calm - N/A   Overcast
8:15 PM 38.5 °F - 18.3 °F 44% 30.21 in 10.0 mi Calm Calm - N/A   Overcast
8:35 PM 34.5 °F - 21.4 °F 59% 30.22 in 10.0 mi Calm Calm - N/A   Mostly Cloudy
8:55 PM 30.6 °F - 23.4 °F 75% 30.23 in 10.0 mi Calm Calm - N/A   Scattered Clouds
9:15 PM 29.3 °F 24.3 °F 23.0 °F 77% 30.23 in 10.0 mi NE 4.6 mph - N/A   Clear
9:35 PM 28.4 °F 21.2 °F 22.5 °F 78% 30.23 in 10.0 mi ENE 6.9 mph - N/A   Clear
9:55 PM 29.3 °F - 21.9 °F 74% 30.24 in 10.0 mi Calm Calm - N/A   Clear
10:15 PM 28.0 °F 21.7 °F 22.1 °F 78% 30.24 in 10.0 mi ENE 5.8 mph - N/A   Clear
10:35 PM 28.0 °F - 21.6 °F 77% 30.24 in 10.0 mi Calm Calm - N/A   Clear
10:55 PM 26.8 °F 20.2 °F 22.3 °F 83% 30.24 in 10.0 mi NE 5.8 mph - N/A   Clear
11:15 PM 28.2 °F - 21.2 °F 75% 30.25 in 10.0 mi Calm Calm - N/A   Clear
11:35 PM 27.3 °F 22.0 °F 21.0 °F 77% 30.25 in 10.0 mi NE 4.6 mph - N/A   Clear
11:55 PM 28.8 °F 25.0 °F 20.5 °F 71% 30.24 in 10.0 mi East 3.5 mph - N/A   Clear